User: anonymous   Login
Location: Campo Alegre
(10.1673°N, 67.4431°W)
Time: 03:08:45
(UTC+00:00)
Language:

Ariane H10 - Orbit

View from above orbital plane
View from above orbital plane
View from above satellite
View from above satellite

Ground track
Ground track

The orbit data is extracted from the following two-line orbital elements,

1 15388U 84114C   24167.25999644  .00000641  00000-0  85244-3 0  9998
2 15388   7.1920 109.4989 6886189 227.4830  49.0211  2.71851700285045
Epoch (UTC): 15 June 2024 06:14:23
Eccentricity: 0.6886189
inclination: 7.1920°
perigee height: 374 km
apogee height: 30241 km
right ascension of ascending node: 109.4989°
argument of perigee: 227.4830°
revolutions per day: 2.71851700
mean anomaly at epoch: 49.0211°
orbit number at epoch: 28504

The dashed part of the orbit path shows where the satellite is in the earth's shadow,  

DLR